Wind_Speed
11 12 13 14 16 18 19 20 21 21 23 24 26 28 28 28 29 30 30 31 31 32 33 34 35 36 36 37 38 39 39 40 41 41 42 43 44 45 45 45 45 45 45 46
11 13 13 14 16 18 19 21 22 23 24 26 29 30 30 31 31 31 32 32 32 33 33 34 35 35 35 36 36 37 38 38 39 40 41 41 42 42 43 43 43 43 44 44
11 14 15 15 17 18 19 20 23 24 24 27 28 29 30 32 33 33 33 33 33 34 34 35 35 36 36 36 36 36 37 37 38 38 39 40 40 41 41 42 42 42 42 42
11 13 15 16 18 19 20 21 22 23 25 26 28 29 29 31 32 33 33 33 34 34 35 36 36 36 36 36 36 36 37 37 37 38 38 39 40 40 41 41 42 42 42 41
10 12 14 16 18 19 20 21 23 23 25 27 29 29 30 31 32 32 33 33 33 34 34 35 36 36 36 36 36 36 37 37 37 38 38 38 39 40 40 40 40 40 40 39
10 12 13 15 17 19 21 21 22 24 25 26 28 29 30 31 32 32 33 34 34 34 35 35 35 36 36 36 36 36 37 37 37 37 38 38 39 39 39 39 39 39 39 39
10 11 12 15 17 19 20 21 23 25 26 27 28 29 30 31 32 33 33 34 35 34 35 36 36 36 36 36 37 37 38 38 38 38 39 39 39 39 39 38 38 38 38 38
11 11 12 15 16 18 20 22 24 25 26 27 28 30 31 32 32 33 34 34 34 34 35 35 36 36 36 37 37 37 37 37 38 38 38 38 38 38 37 37 38 38 37 37
13 13 14 15 16 18 20 21 23 24 25 27 28 28 30 32 32 33 33 34 34 34 34 35 35 35 36 37 37 37 37 36 36 36 37 37 37 36 36 36 36 36 35 35
15 15 16 16 17 18 20 21 22 23 25 26 26 28 28 30 31 32 32 33 33 34 34 34 34 34 35 35 36 36 36 36 35 35 35 35 35 35 35 35 35 34 34 34
16 17 17 18 18 19 20 21 22 23 25 26 27 27 28 28 29 29 30 31 32 33 33 34 34 34 34 34 35 35 35 35 35 35 34 34 34 34 34 34 34 33 33 33
18 20 20 20 20 20 21 22 23 24 25 26 27 28 28 29 30 30 30 30 31 32 32 33 34 34 34 34 34 34 34 34 34 34 34 34 34 34 34 34 34 33 33 33
20 22 23 23 23 23 23 24 24 25 26 27 28 29 29 30 30 31 32 32 32 32 32 32 32 33 34 34 34 34 35 35 35 35 35 34 34 34 34 34 34 34 34 34
22 24 24 25 25 25 25 25 25 26 27 28 28 29 29 30 31 32 33 33 33 33 34 33 33 33 33 34 34 34 35 35 35 35 35 35 34 34 35 35 35 34 34 34
24 25 26 27 27 27 27 26 26 27 27 28 29 29 29 29 30 31 32 33 33 33 34 34 34 34 34 34 35 35 35 35 35 36 36 36 35 35 35 35 35 35 35 34
26 27 28 29 29 29 29 28 28 29 29 29 29 30 30 30 30 31 32 32 33 33 34 34 34 34 34 34 35 35 35 35 35 36 36 36 36 36 35 35 35 34 34 35
28 29 30 31 31 31 30 30 30 30 30 30 30 30 30 30 31 32 32 32 33 34 34 34 34 34 34 34 34 34 35 35 35 35 35 35 36 36 35 35 34 34 34 35
30 31 32 33 33 33 32 32 32 32 32 31 31 31 31 32 32 32 32 32 32 33 33 33 34 33 33 34 34 34 34 34 34 35 35 35 34 34 34 35 34 34 34 34
32 33 34 35 35 35 35 35 35 35 34 33 33 32 32 32 32 32 31 31 31 32 32 32 32 32 32 32 32 33 33 33 33 33 33 33 34 34 34 34 34 34 34 34
34 35 36 37 37 37 37 37 37 37 37 36 35 34 33 33 33 32 31 31 30 31 31 30 30 30 31 31 31 31 31 32 32 32 32 32 32 33 33 33 33 34 34 34
36 37 38 38 39 39 39 39 39 39 39 38 36 35 35 34 33 32 31 30 30 31 31 31 31 31 31 31 30 30 30 30 30 31 31 31 31 31 32 32 32 32 33 33
38 38 39 40 40 41 41 41 41 41 40 39 37 36 35 34 33 31 30 29 29 29 29 30 31 31 31 31 31 30 30 30 30 30 31 31 30 30 30 31 31 31 31 31
39 40 41 42 42 43 43 43 42 42 41 39 37 36 35 33 32 31 29 28 28 29 29 30 31 32 32 32 31 31 31 31 31 31 31 30 30 30 30 30 29 29 30 30
41 42 43 43 43 44 44 44 44 43 41 39 38 36 35 33 32 31 30 29 28 28 28 29 30 30 31 31 31 31 31 31 31 30 30 30 30 30 30 29 29 29 29 29
43 44 44 44 45 45 45 45 44 43 41 38 37 35 34 32 32 31 30 29 28 28 28 28 28 29 29 30 30 30 30 30 30 29 30 30 30 31 30 30 30 30 30 30
45 45 45 45 46 47 46 45 43 42 40 37 36 35 34 33 32 31 30 29 28 28 28 28 28 29 29 30 30 30 30 30 30 30 31 31 31 31 31 31 31 31 31 31
45 45 46 47 47 47 46 44 43 41 39 38 36 35 34 33 32 31 31 30 29 28 28 28 29 29 29 29 30 30 30 31 31 32 32 32 32 32 33 32 32 32 31 31
Wind_Direction
231 233 233 235 237 240 244 246 248 248 248 247 248 248 248 248 247 247 247 246 245 245 245 246 247 247 249 250 252 254 255 257 258 259 260 261 263 264 266 267 269 271 273 274
240 242 244 244 246 247 248 249 251 251 251 251 251 251 250 249 248 247 246 247 246 245 245 246 247 248 249 250 252 253 255 256 258 259 261 262 263 265 267 268 269 271 273 274
245 246 249 251 253 253 253 254 255 255 255 254 255 254 253 251 251 251 250 248 248 248 247 246 247 249 250 252 253 254 255 256 258 259 261 262 264 266 267 269 271 272 273 274
258 255 253 256 256 257 258 259 260 259 258 257 256 256 255 254 254 253 252 251 250 250 250 250 249 250 251 252 254 255 256 257 258 260 261 263 264 266 267 269 270 272 273 274
274 267 262 260 261 262 263 263 264 263 262 260 258 257 257 256 255 254 253 252 252 252 251 251 251 252 253 254 255 256 257 258 259 260 262 263 265 266 268 269 271 272 273 274
293 280 273 272 269 266 267 268 268 267 265 262 260 259 258 257 256 255 255 255 254 254 253 253 253 253 254 254 255 256 257 258 259 261 262 264 265 267 268 269 270 271 272 273
313 296 285 282 277 273 273 273 270 269 267 265 262 261 260 259 258 257 257 256 256 256 255 254 254 254 255 255 256 256 257 258 260 261 262 264 265 266 268 269 270 271 272 272
329 316 302 295 286 281 278 276 275 273 270 268 265 263 262 261 260 259 259 258 257 257 256 256 255 255 256 257 257 257 258 259 260 261 262 263 264 266 267 268 270 271 271 271
342 332 321 311 299 291 285 282 279 277 274 272 268 267 265 264 263 262 261 259 259 258 257 257 257 257 257 257 257 258 258 259 260 261 262 263 264 266 267 268 269 270 270 270
345 336 327 318 309 301 293 288 284 281 279 277 274 272 270 267 266 264 262 262 262 260 259 258 257 257 257 257 257 257 258 258 260 261 262 262 264 265 266 267 268 269 269 269
345 339 332 324 316 309 301 295 290 286 284 282 280 277 274 271 269 267 265 265 263 262 261 260 259 259 259 258 257 257 258 258 259 260 261 261 262 263 264 266 267 268 268 268
341 338 335 329 323 316 308 302 295 291 288 285 283 280 277 274 272 269 268 267 266 264 263 262 261 260 259 258 258 258 258 259 259 260 260 261 262 263 264 265 266 267 268 268
336 336 334 331 327 322 315 307 300 295 291 288 285 283 280 277 275 272 270 269 268 266 265 263 262 261 260 259 258 258 259 259 260 260 260 261 262 263 265 266 266 267 267 268
331 332 332 331 328 324 318 311 305 301 298 293 289 286 282 279 276 275 272 269 269 267 265 264 263 263 262 261 259 259 260 260 260 260 261 261 262 263 265 266 267 267 268 268
326 328 328 328 327 324 320 314 308 305 302 298 293 289 286 283 280 278 274 270 268 267 265 264 263 263 262 261 261 260 260 261 261 261 261 262 263 264 265 266 267 267 267 268
322 323 324 325 325 323 320 316 311 307 305 302 297 292 287 284 283 281 277 272 269 267 266 265 265 263 262 262 262 261 262 262 262 262 262 262 263 265 265 266 266 267 267 268
320 321 322 323 322 322 320 317 314 310 308 304 300 296 292 288 285 283 280 274 271 268 267 266 265 264 263 263 263 263 262 262 263 263 263 264 264 264 264 265 266 267 267 268
318 319 320 321 320 320 318 317 315 313 310 307 303 298 293 290 288 285 282 278 273 269 267 266 265 264 264 263 262 262 262 262 262 263 263 264 265 264 264 265 266 267 267 268
318 318 319 319 319 318 317 315 315 314 312 308 305 300 296 293 291 289 285 281 274 269 266 265 264 263 262 263 263 262 263 263 263 263 263 264 265 264 264 265 265 267 268 268
317 318 318 318 317 317 316 315 315 314 312 309 305 301 298 296 294 290 286 282 276 270 265 264 263 263 262 263 262 262 262 262 262 262 263 264 265 265 265 265 265 266 267 268
316 317 317 316 316 316 315 314 314 313 311 308 305 302 300 298 295 292 288 283 276 271 266 263 262 262 263 263 262 262 261 261 262 262 263 264 265 266 266 266 266 267 268 269
316 316 316 315 315 315 315 314 314 313 311 308 305 303 301 299 297 294 290 284 277 271 267 264 263 262 262 262 262 262 262 261 262 263 263 264 264 265 265 266 267 268 269 270
315 315 315 315 315 315 314 314 313 313 311 308 305 303 302 299 297 295 291 286 281 274 269 265 263 262 262 262 262 262 262 261 262 263 263 263 264 265 266 267 267 268 269 270
314 315 315 315 314 314 314 313 313 312 311 308 306 304 301 299 297 294 291 287 282 277 272 268 265 263 262 262 261 261 261 261 260 261 261 262 263 265 265 266 268 269 270 271
314 314 314 314 314 315 315 314 313 312 311 308 307 305 302 300 297 295 291 287 283 278 274 270 266 264 263 262 262 261 260 259 259 260 261 262 263 264 265 266 268 269 271 272
314 314 314 314 314 315 315 314 313 312 311 309 307 304 302 300 298 295 291 287 283 279 275 271 268 266 265 264 263 261 260 259 259 260 261 262 263 264 265 266 267 269 270 272
313 314 314 314 314 315 315 315 313 312 310 309 306 304 302 300 297 295 291 287 283 280 277 273 270 268 266 265 263 262 261 261 260 261 261 262 264 265 266 267 268 269 269 270
Height
5639 5640 5642 5643 5644 5645 5646 5648 5649 5650 5651 5653 5653 5654 5655 5657 5658 5660 5662 5663 5665 5667 5668 5670 5672 5673 5675 5676 5677 5678 5679 5680 5681 5682 5683 5683 5683 5684 5684 5684 5684 5683 5683 5682
5636 5637 5638 5639 5640 5641 5642 5642 5643 5644 5645 5646 5645 5646 5647 5649 5650 5652 5653 5655 5656 5658 5659 5661 5662 5664 5665 5666 5667 5668 5669 5670 5671 5671 5672 5672 5672 5673 5673 5672 5672 5672 5671 5671
5634 5634 5634 5636 5636 5636 5636 5637 5637 5637 5639 5638 5638 5639 5639 5640 5641 5643 5644 5646 5647 5648 5650 5651 5653 5654 5655 5656 5657 5658 5659 5660 5660 5661 5661 5662 5662 5662 5662 5661 5661 5661 5660 5660
5629 5630 5631 5633 5630 5630 5631 5631 5631 5631 5631 5630 5630 5631 5631 5632 5633 5634 5635 5636 5637 5639 5640 5641 5642 5644 5645 5646 5647 5648 5649 5650 5650 5651 5651 5651 5651 5651 5651 5651 5650 5650 5649 5649
5625 5625 5626 5626 5625 5624 5624 5625 5624 5624 5623 5623 5623 5623 5623 5624 5624 5625 5626 5627 5628 5629 5630 5631 5632 5633 5635 5636 5637 5638 5638 5639 5639 5640 5640 5640 5640 5640 5640 5640 5639 5639 5638 5638
5621 5620 5621 5622 5620 5618 5619 5619 5618 5616 5616 5615 5615 5615 5616 5615 5615 5616 5616 5617 5618 5619 5620 5621 5622 5623 5624 5625 5626 5627 5628 5628 5629 5629 5630 5630 5630 5629 5629 5629 5629 5628 5628 5627
5618 5616 5616 5616 5614 5613 5614 5614 5610 5609 5608 5607 5607 5607 5607 5606 5606 5606 5607 5607 5608 5609 5610 5611 5612 5613 5614 5615 5615 5616 5617 5617 5618 5618 5619 5619 5619 5619 5618 5618 5618 5617 5617 5616
5614 5612 5614 5610 5608 5608 5607 5604 5603 5601 5600 5599 5598 5598 5597 5597 5597 5597 5597 5597 5598 5599 5599 5600 5601 5602 5603 5604 5604 5605 5606 5606 5607 5607 5607 5607 5608 5608 5608 5607 5607 5607 5606 5606
5612 5612 5608 5605 5603 5601 5599 5598 5596 5594 5592 5591 5589 5588 5588 5587 5587 5587 5587 5587 5587 5588 5589 5590 5590 5591 5592 5593 5594 5594 5595 5595 5596 5596 5597 5597 5597 5597 5597 5597 5596 5596 5596 5595
5608 5605 5603 5600 5597 5595 5592 5590 5588 5586 5584 5582 5581 5580 5578 5577 5577 5576 5577 5577 5577 5577 5578 5579 5579 5580 5581 5582 5582 5583 5584 5585 5585 5586 5586 5586 5586 5586 5586 5586 5586 5586 5586 5585
5604 5602 5598 5595 5591 5589 5586 5583 5581 5578 5576 5574 5572 5571 5569 5568 5567 5567 5567 5567 5567 5567 5568 5568 5569 5570 5570 5571 5572 5572 5573 5574 5574 5575 5575 5576 5576 5576 5576 5576 5576 5576 5576 5575
5602 5598 5594 5591 5586 5583 5580 5577 5574 5571 5568 5566 5563 5562 5560 5559 5558 5557 5557 5557 5557 5557 5557 5557 5558 5559 5559 5560 5561 5562 5563 5563 5564 5564 5565 5565 5565 5566 5566 5566 5566 5566 5566 5566
5597 5593 5589 5585 5580 5577 5573 5570 5566 5563 5560 5557 5555 5552 5551 5550 5548 5548 5547 5547 5547 5547 5547 5547 5547 5548 5548 5549 5550 5551 5552 5552 5553 5554 5554 5555 5555 5555 5556 5556 5556 5556 5555 5555
5592 5588 5583 5579 5575 5570 5566 5562 5558 5555 5552 5548 5545 5543 5541 5540 5538 5537 5536 5536 5536 5536 5536 5536 5536 5537 5537 5538 5539 5540 5541 5541 5542 5543 5543 5544 5544 5545 5545 5545 5545 5545 5545 5545
5587 5582 5578 5573 5569 5564 5559 5555 5551 5547 5543 5540 5536 5534 5532 5530 5528 5526 5525 5524 5524 5524 5524 5525 5525 5526 5526 5527 5528 5529 5530 5530 5531 5532 5532 5533 5534 5534 5534 5535 5535 5535 5535 5534
5581 5577 5572 5567 5562 5557 5553 5548 5544 5540 5536 5532 5528 5525 5522 5520 5518 5516 5514 5513 5513 5513 5513 5513 5514 5514 5515 5516 5517 5517 5518 5519 5520 5520 5521 5522 5522 5523 5523 5524 5524 5524 5524 5524
5575 5570 5565 5560 5555 5550 5546 5541 5537 5532 5528 5524 5520 5516 5513 5510 5508 5505 5503 5502 5501 5501 5501 5501 5502 5503 5503 5504 5505 5506 5507 5508 5508 5509 5510 5510 5511 5512 5512 5513 5513 5513 5513 5513
5568 5563 5558 5553 5548 5543 5538 5533 5529 5524 5519 5515 5511 5507 5503 5500 5497 5495 5492 5490 5489 5489 5489 5489 5490 5491 5492 5493 5494 5494 5495 5496 5497 5497 5498 5499 5499 5500 5501 5501 5502 5502 5502 5502
5560 5555 5550 5545 5540 5535 5530 5525 5520 5515 5510 5505 5501 5497 5493 5489 5486 5483 5481 5478 5477 5477 5477 5478 5478 5479 5480 5481 5482 5483 5484 5485 5485 5486 5487 5488 5488 5489 5489 5490 5490 5491 5491 5491
5552 5547 5542 5537 5532 5527 5521 5516 5511 5505 5500 5495 5490 5486 5482 5478 5475 5471 5469 5467 5465 5465 5466 5466 5467 5468 5469 5470 5471 5472 5473 5473 5474 5475 5476 5477 5477 5478 5478 5479 5479 5479 5479 5480
5544 5539 5534 5528 5523 5518 5512 5506 5501 5495 5490 5485 5480 5476 5472 5467 5464 5460 5457 5455 5454 5454 5455 5456 5457 5458 5458 5459 5460 5461 5462 5462 5463 5464 5465 5466 5466 5467 5467 5468 5468 5468 5468 5468
5536 5530 5525 5519 5514 5508 5502 5496 5490 5485 5479 5474 5469 5465 5461 5457 5453 5450 5447 5445 5443 5443 5443 5444 5445 5446 5447 5448 5449 5450 5451 5452 5453 5453 5454 5455 5456 5456 5457 5457 5457 5457 5457 5457
5527 5521 5516 5510 5504 5498 5492 5486 5480 5474 5468 5463 5458 5454 5450 5446 5442 5440 5437 5435 5433 5433 5433 5433 5434 5435 5436 5437 5438 5439 5440 5441 5442 5443 5444 5444 5445 5446 5446 5446 5447 5447 5447 5447
5517 5512 5506 5500 5494 5488 5482 5476 5469 5463 5457 5452 5447 5443 5439 5435 5432 5429 5426 5425 5423 5422 5422 5422 5422 5423 5424 5425 5426 5427 5428 5429 5431 5432 5433 5434 5434 5435 5435 5436 5436 5436 5436 5436
5507 5502 5496 5490 5484 5477 5471 5465 5459 5452 5446 5441 5436 5432 5428 5424 5422 5419 5416 5414 5413 5412 5411 5411 5411 5412 5413 5414 5415 5416 5417 5418 5419 5421 5422 5423 5423 5424 5425 5425 5425 5426 5426 5426
5497 5491 5485 5479 5473 5467 5460 5454 5448 5442 5436 5431 5427 5422 5418 5414 5411 5408 5406 5404 5402 5401 5401 5400 5401 5401 5402 5402 5403 5404 5405 5407 5408 5409 5410 5411 5412 5413 5413 5414 5414 5414 5415 5414
5486 5480 5475 5468 5462 5455 5449 5443 5437 5431 5426 5421 5416 5412 5407 5403 5400 5397 5395 5393 5392 5391 5390 5390 5389 5390 5390 5391 5392 5393 5394 5395 5396 5397 5399 5400 5400 5401 5402 5402 5403 5403 5403 5403